Vertical_Velocity
1 1 0 1 0 0 -2 0 0 2 0 -2 -0 0 -3 -2 -1 3 3 -1 -2 0 -1 1 -3 -1 2 -1 -1 0 3 11
2 1 2 2 -1 -1 1 2 -0 -3 -5 -1 -0 -5 -4 1 1 1 -0 -0 1 4 2 1 6 1 -0 -1 -4 1 21 -9
-5 -1 1 1 2 -0 -1 -1 2 -3 -2 0 -2 -2 0 -0 -2 1 0 -3 -0 -0 9 6 3 10 4 2 -3 3 6 3
-1 -4 -3 0 -0 0 -1 -1 -0 -0 0 -1 -3 3 4 3 2 2 6 -2 10 -25 -3 8 15 10 6 4 7 5 1 1
-0 -1 -6 -4 1 0 1 0 2 -0 -3 1 5 5 -1 -2 0 1 -15 -10 -4 -28 -56 -20 24 17 4 12 -4 -5 4 0
-0 -2 -1 -10 -2 -3 -1 1 -1 -2 3 5 1 -2 1 -3 -8 -9 1 -3 -4 -20 8 -35 27 8 0 1 2 6 -5 -1
-0 -3 -0 -6 -1 3 0 -0 2 1 -1 -5 -1 -4 1 0 6 9 18 10 7 2 -2 -44 -16 3 2 3 -0 3 -0 0
-0 -3 5 -0 -2 5 1 -2 1 -0 -2 -1 -1 0 3 4 -0 3 6 -3 -3 -5 -4 10 0 -4 -2 -4 -3 1 -0 3
-3 0 3 3 -4 0 4 6 6 2 3 2 1 -2 0 1 4 3 -2 3 0 1 9 9 6 -1 -6 -1 -1 -6 -2 -5
2 0 -1 -3 -2 -2 -0 0 -1 2 0 2 3 2 0 2 -5 -2 -2 -6 1 2 3 4 -6 -5 -2 -7 -10 2 4 -4
3 2 -4 0 0 3 -3 -2 0 3 1 3 1 -3 1 3 1 -2 -2 -1 -1 1 -8 -3 -8 -2 -2 -3 -8 0 -15 7
4 -1 2 -0 1 0 -4 -0 -0 1 -0 2 -3 3 -0 -3 -1 -1 2 4 -2 7 -2 1 2 1 1 1 -2 -4 -0 -5
4 2 1 2 -0 -1 1 -2 0 1 -5 -4 3 -0 -0 -2 -3 -3 -3 2 1 2 2 -0 2 2 -1 -2 -4 0 -3 -4
2 0 1 1 1 1 -4 -3 -1 -4 0 3 -0 -1 -1 -0 2 1 1 -1 -2 -2 3 -2 -0 5 -0 3 1 -0 -1 -5
1 1 1 -0 -0 -1 -1 3 -3 -1 2 2 -0 -1 -1 1 2 4 4 5 2 1 1 4 3 5 4 8 -0 -0 1 4
0 1 -1 -1 1 -1 -0 -2 -3 2 0 -4 -2 0 1 -1 -0 0 0 -1 -2 -0 -2 0 -2 -2 2 -0 4 10 -1 -2
1 0 -2 -1 1 2 2 -1 -0 -1 -0 1 0 0 -1 -2 -1 -4 -3 -2 -1 1 -0 1 1 -1 -2 0 2 -1 2 6
0 -2 0 -0 0 -2 -1 -4 -2 -1 -1 0 2 -1 0 -3 -1 -2 1 -0 -2 -3 -3 0 2 2 2 4 3 -1 -3 5
0 1 -1 -1 -2 -2 -1 -3 3 -0 0 -3 -1 -1 -2 -0 -3 -2 -2 -3 -2 -3 -2 0 -4 -2 -4 -2 1 4 5 -1
-0 -2 -1 -3 -2 -0 1 5 -3 -2 -1 -3 -2 -6 -5 -2 -6 -5 -6 -2 -4 -1 -3 1 -0 5 2 3 0 3 2 3
Height
1537 1539 1542 1544 1546 1548 1550 1552 1554 1556 1558 1560 1562 1563 1564 1566 1567 1567 1568 1569 1569 1569 1569 1568 1566 1565 1567 1569 1570 1571 1570 1570
1537 1538 1540 1542 1544 1547 1550 1552 1553 1555 1557 1558 1560 1562 1563 1565 1566 1566 1567 1569 1569 1569 1569 1568 1565 1563 1564 1566 1568 1569 1570 1567
1535 1536 1539 1542 1544 1546 1548 1550 1552 1553 1555 1557 1558 1560 1561 1562 1563 1564 1565 1566 1567 1570 1570 1568 1567 1564 1562 1563 1563 1565 1565 1564
1531 1533 1537 1540 1542 1544 1547 1548 1550 1552 1553 1555 1556 1558 1560 1561 1562 1562 1563 1562 1563 1566 1571 1570 1568 1564 1561 1561 1561 1561 1561 1561
1528 1531 1535 1539 1541 1543 1545 1547 1549 1551 1552 1553 1556 1557 1558 1558 1560 1561 1559 1559 1561 1561 1567 1562 1562 1563 1560 1559 1558 1557 1558 1557
1525 1528 1531 1535 1538 1542 1544 1545 1547 1549 1551 1553 1554 1555 1554 1554 1556 1557 1558 1558 1557 1563 1561 1558 1543 1558 1557 1556 1557 1557 1556 1556
1523 1526 1530 1534 1537 1542 1544 1545 1546 1549 1551 1552 1552 1552 1553 1555 1557 1557 1557 1558 1555 1556 1554 1551 1551 1556 1557 1555 1556 1557 1554 1555
1522 1525 1529 1533 1537 1540 1541 1541 1543 1546 1547 1550 1552 1553 1555 1555 1555 1556 1555 1555 1555 1553 1552 1553 1552 1553 1554 1552 1555 1556 1553 1553
1520 1524 1528 1533 1535 1537 1539 1541 1543 1545 1547 1548 1550 1551 1553 1554 1554 1553 1552 1550 1550 1549 1550 1551 1553 1553 1555 1554 1555 1555 1553 1553
1519 1523 1526 1529 1531 1534 1537 1540 1543 1544 1546 1547 1548 1550 1550 1550 1550 1552 1550 1549 1549 1549 1550 1550 1550 1554 1554 1556 1555 1555 1552 1553
1518 1520 1524 1525 1528 1532 1535 1538 1540 1541 1543 1544 1546 1547 1548 1549 1548 1547 1547 1548 1549 1549 1550 1551 1552 1552 1553 1554 1555 1554 1554 1554
1517 1519 1521 1523 1525 1528 1532 1535 1537 1539 1540 1542 1543 1544 1545 1546 1547 1547 1546 1546 1548 1549 1550 1551 1551 1551 1552 1552 1553 1554 1554 1555
1515 1517 1519 1521 1522 1524 1528 1532 1534 1537 1538 1539 1540 1541 1542 1542 1543 1544 1545 1546 1546 1547 1548 1550 1550 1549 1551 1552 1552 1551 1553 1554
1513 1514 1517 1519 1521 1524 1527 1530 1532 1533 1535 1536 1537 1538 1539 1540 1540 1542 1542 1544 1545 1546 1547 1547 1548 1548 1548 1549 1546 1548 1547 1548
1511 1512 1514 1516 1519 1522 1524 1527 1529 1530 1532 1534 1536 1537 1539 1539 1540 1540 1542 1541 1543 1544 1546 1546 1547 1547 1547 1548 1545 1544 1544 1544
1509 1510 1512 1514 1517 1519 1522 1524 1526 1528 1531 1533 1534 1535 1536 1536 1537 1540 1541 1542 1542 1542 1541 1542 1542 1543 1544 1544 1545 1544 1543 1543
1505 1508 1510 1513 1515 1518 1520 1523 1525 1527 1528 1530 1532 1533 1534 1536 1537 1539 1540 1540 1540 1540 1540 1539 1539 1539 1539 1539 1540 1541 1541 1540
1503 1506 1508 1511 1514 1517 1520 1522 1524 1525 1526 1529 1530 1531 1533 1534 1536 1538 1539 1539 1539 1538 1537 1537 1536 1536 1536 1537 1536 1536 1538 1540
1501 1503 1506 1510 1513 1516 1519 1521 1522 1523 1526 1527 1529 1531 1532 1533 1534 1536 1537 1536 1536 1536 1535 1535 1534 1533 1533 1533 1533 1533 1532 1533
1499 1502 1506 1509 1513 1516 1519 1521 1521 1523 1524 1526 1527 1529 1530 1530 1531 1532 1533 1533 1533 1533 1533 1532 1531 1531 1531 1531 1531 1531 1531 1531